sat.trackr.live / text

‹ back to catalog

STARLINK-34426

NORAD 64345 · 2025-126B

PAYLOAD ACTIVE UNKNOWN

§ Identity

Operator
Country
US
Launch date
2025-06-13
Launch site
AFWTR
Launch vehicle
Mass (kg)
RCS (m²)

Purposes: comms

External: N2YO · Heavens-Above · Gunter

§ Orbital elements

Epoch: 2026-09-20T09:33:02.966400Z

Period
94.09 min
Inclination
70.0008°
Eccentricity
0.0003171
Mean motion
15.30410014 rev/d
Perigee alt
472.4 km
Apogee alt
476.8 km
Semi-major
6,852.7 km
B*
3.2298e-4
RAAN
261.2789°
Arg perigee
271.7283°
Mean anomaly
88.3529°
Rev number
6,990

§ Raw data

STARLINK-344261 64345U 25126B   26263.39795100  .00009408  00000+0  32298-3 0  99982 64345  70.0008 261.2789 0003171 271.7283  88.3529 15.30410014 69904

JSON: /api/v1/satellites/64345 · /tle

For live sub-satellite position, see the globe view (requires WebGL).

§ Visibility from observer

Set your observer location to see the next 7 days of passes ≥ 10°. The values pass through the URL so the page stays shareable.

No JS? Fill the form by hand. The geolocation button needs JavaScript.